Weather History for Blythe, CA

Change the Weather History Date:

Sunday, May 6, 2012

  Actual Average Record
Temperature  
Mean Temperature 80 °F -  
Max Temperature 93 °F 91 °F 104 °F (1987)
Min Temperature 66 °F 61 °F 48 °F (1988)
Cooling Degree Days 14    
Growing Degree Days 30 (Base 50)    
Moisture  
Dew Point 15 °F    
Average Humidity 8    
Maximum Humidity 13    
Minimum Humidity 5    
Precipitation  
Precipitation 0.00 in - - ()
Sea Level Pressure  
Sea Level Pressure 29.80 in    
Wind  
Wind Speed 6 mph (NW)    
Max Wind Speed 15 mph    
Max Gust Speed 18 mph    
Visibility 10 miles    
Events      
Averages and records for this station are not official NWS values.
T = Trace of Precipitation, MM = Missing Value Source: NWS Daily Summary

Daily Weather History Graph

Daily Weather History Graph

Search for Another Location

Airport:

Trip Planner

Search our weather history database for the weather conditions in past years. The results will help you decide how hot, cold, wet, or windy it might be!

Date:

Astronomy

May. 06, 2012 Rise Set
Actual Time 5:45 AM PDT 7:26 PM PDT
Civil Twilight 5:18 AM PDT 7:53 PM PDT
Nautical Twilight 4:45 AM PDT 8:25 PM PDT
Astronomical Twilight 4:11 AM PDT 9:00 PM PDT
Moon 8:32 PM PDT (5/6) 6:01 AM PDT (5/6)
Length of Visible Light 14h 35m
Length of Day
13h 41m
Full, 99% of the Moon is Illuminated
May 6
Full
May 12
Last Quarter
May 20
New
May 28
First Quarter
Jun 4
Full

Hourly Weather History & Observations

Time (PDT) Temp. Dew Point Humidity Pressure Visibility Wind Dir Wind Speed Gust Speed Precip Events Conditions
1:52 AM 73.0 °F 17.1 °F 12% 29.78 in 10.0 mi SW 5.8 mph - N/A   Clear
2:52 AM 69.1 °F 16.0 °F 13% 29.78 in 10.0 mi NW 4.6 mph - N/A   Clear
3:52 AM 69.1 °F 15.1 °F 13% 29.78 in 10.0 mi WSW 6.9 mph - N/A   Clear
4:52 AM 66.0 °F 14.0 °F 13% 29.79 in 10.0 mi Calm Calm - N/A   Clear
5:52 AM 66.9 °F 14.0 °F 13% 29.80 in 10.0 mi NW 5.8 mph - N/A   Clear
6:52 AM 71.1 °F 14.0 °F 11% 29.82 in 10.0 mi Calm Calm - N/A   Clear
7:52 AM 73.9 °F 19.9 °F 13% 29.84 in 10.0 mi Variable 4.6 mph - N/A   Clear
8:52 AM 82.9 °F 12.9 °F 7% 29.86 in 10.0 mi North 15.0 mph 18.4 mph N/A   Clear
9:52 AM 84.9 °F 12.9 °F 7% 29.86 in 10.0 mi NNW 13.8 mph - N/A   Clear
10:52 AM 87.1 °F 12.9 °F 6% 29.87 in 10.0 mi NNW 12.7 mph - N/A   Clear
11:52 AM 90.0 °F 12.9 °F 6% 29.85 in 10.0 mi North 9.2 mph - N/A   Clear
12:52 PM 91.0 °F 15.1 °F 6% 29.83 in 10.0 mi Variable 5.8 mph - N/A   Clear
1:52 PM 91.9 °F 12.9 °F 5% 29.82 in 10.0 mi Calm Calm - N/A   Clear
2:52 PM 91.9 °F 14.0 °F 6% 29.79 in 10.0 mi South 5.8 mph - N/A   Clear
3:52 PM 93.9 °F 17.1 °F 6% 29.77 in 10.0 mi East 10.4 mph - N/A   Clear
4:52 PM 93.0 °F 17.1 °F 6% 29.77 in 10.0 mi SE 8.1 mph - N/A   Clear
5:52 PM 91.9 °F 17.1 °F 6% 29.76 in 10.0 mi SE 9.2 mph - N/A   Clear
6:52 PM 90.0 °F 19.0 °F 7% 29.75 in 10.0 mi SSE 5.8 mph - N/A   Clear
7:52 PM 87.1 °F 19.9 °F 8% 29.77 in 10.0 mi SW 4.6 mph - N/A   Clear
8:52 PM 84.9 °F 18.0 °F 8% 29.77 in 10.0 mi Calm Calm - N/A   Clear
9:52 PM 79.0 °F 15.1 °F 9% 29.79 in 10.0 mi NNW 8.1 mph - N/A   Clear
10:52 PM 80.1 °F 10.0 °F 7% 29.79 in 10.0 mi NW 10.4 mph - N/A   Clear
11:52 PM 80.1 °F 9.0 °F 7% 29.79 in 10.0 mi NNW 9.2 mph - N/A   Clear